����������;��������(kWh)
2019-04-22 00:00;79,05
2019-04-22 00:15;79,4
2019-04-22 00:30;78
2019-04-22 00:45;76,4
2019-04-22 01:00;76,7
2019-04-22 01:15;74,35
2019-04-22 01:30;75,1
2019-04-22 01:45;74,45
2019-04-22 02:00;74,5
2019-04-22 02:15;77,95
2019-04-22 02:30;74,95
2019-04-22 02:45;76,3
2019-04-22 03:00;76,85
2019-04-22 03:15;78,7
2019-04-22 03:30;78,55
2019-04-22 03:45;77,8
2019-04-22 04:00;77,3
2019-04-22 04:15;77,45
2019-04-22 04:30;76,65
2019-04-22 04:45;76,8
2019-04-22 05:00;74,2
2019-04-22 05:15;73,4
2019-04-22 05:30;73,65
2019-04-22 05:45;73,7
2019-04-22 06:00;78,05
2019-04-22 06:15;77,9
2019-04-22 06:30;74,85
2019-04-22 06:45;74,65
2019-04-22 07:00;76,25
2019-04-22 07:15;76,55
2019-04-22 07:30;129,3
2019-04-22 07:45;100,3
2019-04-22 08:00;95,45
2019-04-22 08:15;99,7
2019-04-22 08:30;95,75
2019-04-22 08:45;107,3
2019-04-22 09:00;107,95
2019-04-22 09:15;109,55
2019-04-22 09:30;109,35
2019-04-22 09:45;126,8
2019-04-22 10:00;124,35
2019-04-22 10:15;134,1
2019-04-22 10:30;126,1
2019-04-22 10:45;135,7
2019-04-22 11:00;116,75
2019-04-22 11:15;128,9
2019-04-22 11:30;119,05
2019-04-22 11:45;123
2019-04-22 12:00;120,55
2019-04-22 12:15;123,8
2019-04-22 12:30;118,35
2019-04-22 12:45;120,15
2019-04-22 13:00;127,15
2019-04-22 13:15;123,4
2019-04-22 13:30;124,5
2019-04-22 13:45;117,8
2019-04-22 14:00;127,4
2019-04-22 14:15;122,45
2019-04-22 14:30;128,85
2019-04-22 14:45;119,2
2019-04-22 15:00;115
2019-04-22 15:15;115,3
2019-04-22 15:30;104
2019-04-22 15:45;107,4
2019-04-22 16:00;97,65
2019-04-22 16:15;102,25
2019-04-22 16:30;98,15
2019-04-22 16:45;92,5
2019-04-22 17:00;100,8
2019-04-22 17:15;91
2019-04-22 17:30;91,4
2019-04-22 17:45;99,35
2019-04-22 18:00;90,45
2019-04-22 18:15;90,85
2019-04-22 18:30;89,8
2019-04-22 18:45;88,15
2019-04-22 19:00;87,75
2019-04-22 19:15;88,5
2019-04-22 19:30;86,1
2019-04-22 19:45;82,7
2019-04-22 20:00;85,1
2019-04-22 20:15;85,8
2019-04-22 20:30;87,25
2019-04-22 20:45;85,2
2019-04-22 21:00;85,65
2019-04-22 21:15;86,25
2019-04-22 21:30;86,95
2019-04-22 21:45;87,9
2019-04-22 22:00;84,9
2019-04-22 22:15;83,75
2019-04-22 22:30;81,3
2019-04-22 22:45;83,65
2019-04-22 23:00;89,2
2019-04-22 23:15;83
2019-04-22 23:30;83,15
2019-04-22 23:45;84,25
2019-04-23 00:00;77,1
2019-04-23 00:15;80,35
2019-04-23 00:30;77,45
2019-04-23 00:45;77,05
2019-04-23 01:00;76,75
2019-04-23 01:15;76,55
2019-04-23 01:30;75,85
2019-04-23 01:45;77,45
2019-04-23 02:00;77,35
2019-04-23 02:15;79,6
2019-04-23 02:30;76,5
2019-04-23 02:45;73,8
2019-04-23 03:00;75
2019-04-23 03:15;75,8
2019-04-23 03:30;75,15
2019-04-23 03:45;76,55
2019-04-23 04:00;75,4
2019-04-23 04:15;75,2
2019-04-23 04:30;75,9
2019-04-23 04:45;76,4
2019-04-23 05:00;76,35
2019-04-23 05:15;75,8
2019-04-23 05:30;77,65
2019-04-23 05:45;76,9
2019-04-23 06:00;78,75
2019-04-23 06:15;77,65
2019-04-23 06:30;78,2
2019-04-23 06:45;75,25
2019-04-23 07:00;75,7
2019-04-23 07:15;76,4
2019-04-23 07:30;133,35
2019-04-23 07:45;85,1
2019-04-23 08:00;91,1
2019-04-23 08:15;89,9
2019-04-23 08:30;94,9
2019-04-23 08:45;99,2
2019-04-23 09:00;103,8
2019-04-23 09:15;118,7
2019-04-23 09:30;113,4
2019-04-23 09:45;121,85
2019-04-23 10:00;110,45
2019-04-23 10:15;123,9
2019-04-23 10:30;116,65
2019-04-23 10:45;113,7
2019-04-23 11:00;123,55
2019-04-23 11:15;115,65
2019-04-23 11:30;120,65
2019-04-23 11:45;113,85
2019-04-23 12:00;116,35
2019-04-23 12:15;123,5
2019-04-23 12:30;116,05
2019-04-23 12:45;119,4
2019-04-23 13:00;110,05
2019-04-23 13:15;107,6
2019-04-23 13:30;114,95
2019-04-23 13:45;106,55
2019-04-23 14:00;112,3
2019-04-23 14:15;100,6
2019-04-23 14:30;99,9
2019-04-23 14:45;104,45
2019-04-23 15:00;94,95
2019-04-23 15:15;100,4
2019-04-23 15:30;91,6
2019-04-23 15:45;95,3
2019-04-23 16:00;94,4
2019-04-23 16:15;88,4
2019-04-23 16:30;94,8
2019-04-23 16:45;86,95
2019-04-23 17:00;88,15
2019-04-23 17:15;94,6
2019-04-23 17:30;87,4
2019-04-23 17:45;90,1
2019-04-23 18:00;85,3
2019-04-23 18:15;85,5
2019-04-23 18:30;84,95
2019-04-23 18:45;77,35
2019-04-23 19:00;79,05
2019-04-23 19:15;81
2019-04-23 19:30;77,15
2019-04-23 19:45;79,9
2019-04-23 20:00;80,6
2019-04-23 20:15;81
2019-04-23 20:30;84
2019-04-23 20:45;83,5
2019-04-23 21:00;84,4
2019-04-23 21:15;81,5
2019-04-23 21:30;80,2
2019-04-23 21:45;81,7
2019-04-23 22:00;79,8
2019-04-23 22:15;79,1
2019-04-23 22:30;77,9
2019-04-23 22:45;78,45
2019-04-23 23:00;84,15
2019-04-23 23:15;83,9
2019-04-23 23:30;88,1
2019-04-23 23:45;84,9
2019-04-24 00:00;81,2
2019-04-24 00:15;82,6
2019-04-24 00:30;82,2
2019-04-24 00:45;84,35
2019-04-24 01:00;82,35
2019-04-24 01:15;80,85
2019-04-24 01:30;81,65
2019-04-24 01:45;78
2019-04-24 02:00;76,7
2019-04-24 02:15;76,2
2019-04-24 02:30;76,6
2019-04-24 02:45;77,9
2019-04-24 03:00;77,9
2019-04-24 03:15;78,5
2019-04-24 03:30;76,25
2019-04-24 03:45;75,8
2019-04-24 04:00;77,8
2019-04-24 04:15;76,95
2019-04-24 04:30;76,45
2019-04-24 04:45;77,1
2019-04-24 05:00;75,6
2019-04-24 05:15;75,1
2019-04-24 05:30;75,95
2019-04-24 05:45;78,35
2019-04-24 06:00;77,65
2019-04-24 06:15;74,1
2019-04-24 06:30;75,7
2019-04-24 06:45;76,65
2019-04-24 07:00;73,55
2019-04-24 07:15;77,2
2019-04-24 07:30;126,35
2019-04-24 07:45;81,35
2019-04-24 08:00;87,65
2019-04-24 08:15;85,85
2019-04-24 08:30;96,5
2019-04-24 08:45;107,1
2019-04-24 09:00;97,2
2019-04-24 09:15;102
2019-04-24 09:30;97,45
2019-04-24 09:45;105,65
2019-04-24 10:00;96,2
2019-04-24 10:15;95,1
2019-04-24 10:30;103,4
2019-04-24 10:45;98,4
2019-04-24 11:00;105,95
2019-04-24 11:15;97,45
2019-04-24 11:30;96,1
2019-04-24 11:45;104,65
2019-04-24 12:00;99,6
2019-04-24 12:15;107,75
2019-04-24 12:30;100,05
2019-04-24 12:45;102,2
2019-04-24 13:00;107,15
2019-04-24 13:15;99,6
2019-04-24 13:30;98,1
2019-04-24 13:45;102,2
2019-04-24 14:00;94,3
2019-04-24 14:15;95,1
2019-04-24 14:30;103,65
2019-04-24 14:45;96,35
2019-04-24 15:00;97,45
2019-04-24 15:15;87,95
2019-04-24 15:30;84,25
2019-04-24 15:45;89,85
2019-04-24 16:00;85,15
2019-04-24 16:15;83,65
2019-04-24 16:30;83,8
2019-04-24 16:45;87,75
2019-04-24 17:00;81,5
2019-04-24 17:15;83,1
2019-04-24 17:30;87,25
2019-04-24 17:45;79,1
2019-04-24 18:00;80,35
2019-04-24 18:15;80,15
2019-04-24 18:30;81,9
2019-04-24 18:45;81,8
2019-04-24 19:00;82,65
2019-04-24 19:15;83,55
2019-04-24 19:30;82,5
2019-04-24 19:45;82,1
2019-04-24 20:00;83,4
2019-04-24 20:15;84,2
2019-04-24 20:30;84,95
2019-04-24 20:45;81,6
2019-04-24 21:00;80,65
2019-04-24 21:15;79,1
2019-04-24 21:30;77,4
2019-04-24 21:45;79,3
2019-04-24 22:00;78,2
2019-04-24 22:15;77,25
2019-04-24 22:30;74,65
2019-04-24 22:45;73,1
2019-04-24 23:00;80,3
2019-04-24 23:15;76,75
2019-04-24 23:30;82,85
2019-04-24 23:45;80,85
2019-04-25 00:00;76,75
2019-04-25 00:15;77,7
2019-04-25 00:30;77,9
2019-04-25 00:45;79,9
2019-04-25 01:00;78,6
2019-04-25 01:15;78,75
2019-04-25 01:30;73,05
2019-04-25 01:45;71,25
2019-04-25 02:00;74,05
2019-04-25 02:15;73,5
2019-04-25 02:30;73,9
2019-04-25 02:45;73,65
2019-04-25 03:00;73,95
2019-04-25 03:15;76,5
2019-04-25 03:30;74,3
2019-04-25 03:45;74,75
2019-04-25 04:00;75,1
2019-04-25 04:15;71,55
2019-04-25 04:30;72,75
2019-04-25 04:45;73,9
2019-04-25 05:00;71,65
2019-04-25 05:15;74
2019-04-25 05:30;76,1
2019-04-25 05:45;74,3
2019-04-25 06:00;76,5
2019-04-25 06:15;74,4
2019-04-25 06:30;74,95
2019-04-25 06:45;71,75
2019-04-25 07:00;72,3
2019-04-25 07:15;75,05
2019-04-25 07:30;123,55
2019-04-25 07:45;76,1
2019-04-25 08:00;76,3
2019-04-25 08:15;84,8
2019-04-25 08:30;77,3
2019-04-25 08:45;84,7
2019-04-25 09:00;77,7
2019-04-25 09:15;82,6
2019-04-25 09:30;87,1
2019-04-25 09:45;83,2
2019-04-25 10:00;87,4
2019-04-25 10:15;79,25
2019-04-25 10:30;80,8
2019-04-25 10:45;89,3
2019-04-25 11:00;83,65
2019-04-25 11:15;87,9
2019-04-25 11:30;90,9
2019-04-25 11:45;85,9
2019-04-25 12:00;83,45
2019-04-25 12:15;79,95
2019-04-25 12:30;78,85
2019-04-25 12:45;79,8
2019-04-25 13:00;76,2
2019-04-25 13:15;74,95
2019-04-25 13:30;73,75
2019-04-25 13:45;72,6
2019-04-25 14:00;70,6
2019-04-25 14:15;70,15
2019-04-25 14:30;71,8
2019-04-25 14:45;69,5
2019-04-25 15:00;67,9
2019-04-25 15:15;67,6
2019-04-25 15:30;66,4
2019-04-25 15:45;67,15
2019-04-25 16:00;67,2
2019-04-25 16:15;66,15
2019-04-25 16:30;65,2
2019-04-25 16:45;65,3
2019-04-25 17:00;69,7
2019-04-25 17:15;68,8
2019-04-25 17:30;68,65
2019-04-25 17:45;66,7
2019-04-25 18:00;69,15
2019-04-25 18:15;69,45
2019-04-25 18:30;67,4
2019-04-25 18:45;64,5
2019-04-25 19:00;63,9
2019-04-25 19:15;65,35
2019-04-25 19:30;64,6
2019-04-25 19:45;67,1
2019-04-25 20:00;67,4
2019-04-25 20:15;69,65
2019-04-25 20:30;70,15
2019-04-25 20:45;70,25
2019-04-25 21:00;74,05
2019-04-25 21:15;75,5
2019-04-25 21:30;73,25
2019-04-25 21:45;72,75
2019-04-25 22:00;72,1
2019-04-25 22:15;74,7
2019-04-25 22:30;70,95
2019-04-25 22:45;67,6
2019-04-25 23:00;75,3
2019-04-25 23:15;72
2019-04-25 23:30;74,3
2019-04-25 23:45;73,2
2019-04-26 00:00;69,25
2019-04-26 00:15;70,65
2019-04-26 00:30;70,45
2019-04-26 00:45;70,95
2019-04-26 01:00;72,1
2019-04-26 01:15;70,25
2019-04-26 01:30;69
2019-04-26 01:45;68,55
2019-04-26 02:00;69,85
2019-04-26 02:15;70,35
2019-04-26 02:30;71,85
2019-04-26 02:45;71,5
2019-04-26 03:00;69,6
2019-04-26 03:15;69,75
2019-04-26 03:30;70,15
2019-04-26 03:45;71,85
2019-04-26 04:00;69,45
2019-04-26 04:15;68,8
2019-04-26 04:30;68,4
2019-04-26 04:45;67,4
2019-04-26 05:00;70,35
2019-04-26 05:15;66,65
2019-04-26 05:30;66,35
2019-04-26 05:45;67,95
2019-04-26 06:00;66,35
2019-04-26 06:15;67,95
2019-04-26 06:30;65,8
2019-04-26 06:45;63,85
2019-04-26 07:00;63,95
2019-04-26 07:15;62,95
2019-04-26 07:30;62,2
2019-04-26 07:45;62,6
2019-04-26 08:00;61,85
2019-04-26 08:15;63,15
2019-04-26 08:30;62,15
2019-04-26 08:45;61,2
2019-04-26 09:00;62,55
2019-04-26 09:15;62,6
2019-04-26 09:30;61,65
2019-04-26 09:45;60,65
2019-04-26 10:00;61,1
2019-04-26 10:15;63,25
2019-04-26 10:30;64,1
2019-04-26 10:45;66,7
2019-04-26 11:00;65,4
2019-04-26 11:15;65,6
2019-04-26 11:30;65,85
2019-04-26 11:45;63,9
2019-04-26 12:00;64,45
2019-04-26 12:15;61,7
2019-04-26 12:30;60,15
2019-04-26 12:45;60,1
2019-04-26 13:00;63,3
2019-04-26 13:15;62,5
2019-04-26 13:30;61,75
2019-04-26 13:45;62,4
2019-04-26 14:00;61,1
2019-04-26 14:15;61,4
2019-04-26 14:30;61,95
2019-04-26 14:45;61,1
2019-04-26 15:00;60,15
2019-04-26 15:15;62,1
2019-04-26 15:30;62,9
2019-04-26 15:45;63,5
2019-04-26 16:00;63,8
2019-04-26 16:15;62,5
2019-04-26 16:30;62,1
2019-04-26 16:45;62,5
2019-04-26 17:00;66
2019-04-26 17:15;66,6
2019-04-26 17:30;68,55
2019-04-26 17:45;66,7
2019-04-26 18:00;67,45
2019-04-26 18:15;69,1
2019-04-26 18:30;65,5
2019-04-26 18:45;65,5
2019-04-26 19:00;63,75
2019-04-26 19:15;66,75
2019-04-26 19:30;65,95
2019-04-26 19:45;66,45
2019-04-26 20:00;68,3
2019-04-26 20:15;69,2
2019-04-26 20:30;76,2
2019-04-26 20:45;75,3
2019-04-26 21:00;77,4
2019-04-26 21:15;73,8
2019-04-26 21:30;74,65
2019-04-26 21:45;69,7
2019-04-26 22:00;70,2
2019-04-26 22:15;69,3
2019-04-26 22:30;69,3
2019-04-26 22:45;70,5
2019-04-26 23:00;74,7
2019-04-26 23:15;70,9
2019-04-26 23:30;70,55
2019-04-26 23:45;69,75
2019-04-27 00:00;69,4
2019-04-27 00:15;69,55
2019-04-27 00:30;69,35
2019-04-27 00:45;69,05
2019-04-27 01:00;70,55
2019-04-27 01:15;68,1
2019-04-27 01:30;68,75
2019-04-27 01:45;68,75
2019-04-27 02:00;70,25
2019-04-27 02:15;70,15
2019-04-27 02:30;70,35
2019-04-27 02:45;69,3
2019-04-27 03:00;71,15
2019-04-27 03:15;68,65
2019-04-27 03:30;69,2
2019-04-27 03:45;68,8
2019-04-27 04:00;69,75
2019-04-27 04:15;67,45
2019-04-27 04:30;68,1
2019-04-27 04:45;67,15
2019-04-27 05:00;67,35
2019-04-27 05:15;68,2
2019-04-27 05:30;68,35
2019-04-27 05:45;67,9
2019-04-27 06:00;68,35
2019-04-27 06:15;68,4
2019-04-27 06:30;65,3
2019-04-27 06:45;64,3
2019-04-27 07:00;61,75
2019-04-27 07:15;62,05
2019-04-27 07:30;62,3
2019-04-27 07:45;60,25
2019-04-27 08:00;59,35
2019-04-27 08:15;59,55
2019-04-27 08:30;59,75
2019-04-27 08:45;61,5
2019-04-27 09:00;60,3
2019-04-27 09:15;59,55
2019-04-27 09:30;58,65
2019-04-27 09:45;59,3
2019-04-27 10:00;60,1
2019-04-27 10:15;60,3
2019-04-27 10:30;59,8
2019-04-27 10:45;62,4
2019-04-27 11:00;61,7
2019-04-27 11:15;64,2
2019-04-27 11:30;63
2019-04-27 11:45;64,4
2019-04-27 12:00;64,7
2019-04-27 12:15;62,8
2019-04-27 12:30;63,65
2019-04-27 12:45;60,25
2019-04-27 13:00;60,2
2019-04-27 13:15;61,3
2019-04-27 13:30;60,5
2019-04-27 13:45;59,7
2019-04-27 14:00;59,9
2019-04-27 14:15;61,05
2019-04-27 14:30;60,55
2019-04-27 14:45;60,9
2019-04-27 15:00;58,85
2019-04-27 15:15;60,6
2019-04-27 15:30;59,2
2019-04-27 15:45;60,95
2019-04-27 16:00;60,1
2019-04-27 16:15;60
2019-04-27 16:30;59
2019-04-27 16:45;60,1
2019-04-27 17:00;60,85
2019-04-27 17:15;59,95
2019-04-27 17:30;61,1
2019-04-27 17:45;61,15
2019-04-27 18:00;62
2019-04-27 18:15;64,8
2019-04-27 18:30;62,5
2019-04-27 18:45;65,3
2019-04-27 19:00;66,25
2019-04-27 19:15;67,5
2019-04-27 19:30;67,65
2019-04-27 19:45;68,55
2019-04-27 20:00;67,9
2019-04-27 20:15;68,1
2019-04-27 20:30;68,15
2019-04-27 20:45;69,95
2019-04-27 21:00;69,25
2019-04-27 21:15;68,15
2019-04-27 21:30;69,2
2019-04-27 21:45;70,7
2019-04-27 22:00;68,5
2019-04-27 22:15;68,35
2019-04-27 22:30;69
2019-04-27 22:45;69,05
2019-04-27 23:00;76,6
2019-04-27 23:15;72,8
2019-04-27 23:30;71,2
2019-04-27 23:45;70,3
2019-04-28 00:00;69,6
2019-04-28 00:15;69,7
2019-04-28 00:30;72,05
2019-04-28 00:45;71,6
2019-04-28 01:00;70,05
2019-04-28 01:15;68,25
2019-04-28 01:30;67,45
2019-04-28 01:45;68,65
2019-04-28 02:00;68,65
2019-04-28 02:15;69
2019-04-28 02:30;68,9
2019-04-28 02:45;70,7
2019-04-28 03:00;69,2
2019-04-28 03:15;71,6
2019-04-28 03:30;71,85
2019-04-28 03:45;70,55
2019-04-28 04:00;72,75
2019-04-28 04:15;69,25
2019-04-28 04:30;69,5
2019-04-28 04:45;68,45
2019-04-28 05:00;67,2
2019-04-28 05:15;66,35
2019-04-28 05:30;65,7
2019-04-28 05:45;67,05
2019-04-28 06:00;68,05
2019-04-28 06:15;65,55
2019-04-28 06:30;66,05
2019-04-28 06:45;63,3
2019-04-28 07:00;65,35
2019-04-28 07:15;64
2019-04-28 07:30;60,75
2019-04-28 07:45;60,55
2019-04-28 08:00;60,3
2019-04-28 08:15;60,3
2019-04-28 08:30;60,45
2019-04-28 08:45;60,8
2019-04-28 09:00;59,65
2019-04-28 09:15;60,95
2019-04-28 09:30;59
2019-04-28 09:45;60,85
2019-04-28 10:00;60,15
2019-04-28 10:15;60
2019-04-28 10:30;58,8
2019-04-28 10:45;60,4
2019-04-28 11:00;62,1
2019-04-28 11:15;62,8
2019-04-28 11:30;66,15
2019-04-28 11:45;65,8
2019-04-28 12:00;65,05
2019-04-28 12:15;63,5
2019-04-28 12:30;63,25
2019-04-28 12:45;62,05
2019-04-28 13:00;59,25
2019-04-28 13:15;59
2019-04-28 13:30;60,2
2019-04-28 13:45;60,05
2019-04-28 14:00;58,65
2019-04-28 14:15;58,95
2019-04-28 14:30;59,55
2019-04-28 14:45;61,3
2019-04-28 15:00;58,95
2019-04-28 15:15;59,6
2019-04-28 15:30;61
2019-04-28 15:45;60,35
2019-04-28 16:00;59,95
2019-04-28 16:15;60,3
2019-04-28 16:30;60,55
2019-04-28 16:45;61,9
2019-04-28 17:00;61,05
2019-04-28 17:15;60,2
2019-04-28 17:30;60,45
2019-04-28 17:45;60,45
2019-04-28 18:00;62,3
2019-04-28 18:15;61,65
2019-04-28 18:30;61,05
2019-04-28 18:45;62,4
2019-04-28 19:00;65,2
2019-04-28 19:15;67,85
2019-04-28 19:30;66,8
2019-04-28 19:45;67,75
2019-04-28 20:00;67,25
2019-04-28 20:15;68,7
2019-04-28 20:30;68,05
2019-04-28 20:45;66,55
2019-04-28 21:00;67,3
2019-04-28 21:15;67,15
2019-04-28 21:30;66,6
2019-04-28 21:45;66,8
2019-04-28 22:00;70,05
2019-04-28 22:15;68,45
2019-04-28 22:30;66,95
2019-04-28 22:45;67,2
2019-04-28 23:00;72,2
2019-04-28 23:15;67,85
2019-04-28 23:30;69,1
2019-04-28 23:45;67,85

